Location: Observatoire
(46.1952°N, 5.3391°E)
Time: 22:10:32
(UTC+01:00)

Tiros 1 despin weight - Pass Details

Date: 24 February 2026
Orbit: 556 x 593 km, 48.2° (Epoch: 9 March)

Event Time Altitude Azimuth Distance (km) Brightness Sun altitude
Rises 16:41:28 0° 282° (WNW) 2,743 ? 14.6°
Reaches altitude 10° 16:43:44 10° 284° (WNW) 1,843 ? 14.2°
Maximum altitude 16:47:56 73° 10° (N) 584 ? 13.6°
Drops below altitude 10° 16:52:07 10° 95° (E) 1,834 ? 13.0°
Sets 16:54:22 0° 98° (E) 2,729 ? 12.6°
